Location: New Greens
(51.7702°N, 0.3379°W)
Time: 09:33:17
(UTC+00:00)

Envisat - Pass Details

Date: 02 February 2019
Orbit: 764 x 766 km, 98.2° (Epoch: 21 February)

Event Time Altitude Azimuth Distance (km) Brightness Sun altitude
Rises 18:20:21 0° 159° (SSE) 3,223 6.1 -13.9°
Reaches altitude 10° 18:22:39 10° 158° (SSE) 2,300 5.3 -14.2°
Maximum altitude 18:27:43 79° 73° (ENE) 787 2.9 -15.0°
Drops below altitude 10° 18:32:49 10° 347° (NNW) 2,316 5.6 -15.8°
Sets 18:35:08 0° 347° (NNW) 3,247 6.3 -16.1°
